Flag for Romania Weather past 2 weeks in Iasi, Romania

Now
43 °F

Light rain. Passing clouds.


Feels Like: 39 °F
Forecast: 42 / 52 °F
Wind: 7 mph from Southwest

Location: Iasi Airport

Current Time: Dec 23, 2014 at 12:17:51 AM

Latest Report: Dec 22, 2014 at 11:00 PM


Visibility: N/A

Pressure: 29.83 "Hg

Humidity: 71%

Dew point: 34 °F

Location of IasiLocation

Historic Weather in Iasi — Graph

°F

Iasi temperature yesterday

Maximum temperature yesterday: 45 °F (at 1:00 PM)
Minimum temperature yesterday: 34 °F (at 5:00 AM)
Average temperature yesterday: 40 °F

Past Weeks' High & Low Weather Summary

 TemperatureHumidityPressure
High46 °F (Dec 12, 1:30 PM)100% (Dec 7, 10:00 PM)30.24 "Hg (Dec 7, 10:00 PM)
Low27 °F (Dec 13, 7:30 AM)49% (Dec 22, 1:00 PM)29.80 "Hg (Dec 17, 1:00 PM)
Average34 °F94%30.07 "Hg
* Reported Dec 7 10:00 PM — Dec 22 10:00 PM, Iasi, Weather by CustomWeather, © 2014

Note: Actual official high and low records may vary slightly from our data, if they occured in-between our weather recording intervals... More about our weather records

Advertising

Iasi weather history for previous 24 hours

 ConditionsComfort  
Time TempWeatherWind HumidityBarometerVisibility
10:00 PM
Dec 22
45 °FLight rain. Passing clouds.7 mph61%29.83 "HgN/A
9:00 PM45 °FPassing clouds.7 mph57%29.83 "HgN/A
8:30 PM43 °FPassing clouds.7 mph61%29.86 "HgN/A
8:00 PM43 °FPassing clouds.7 mph61%29.86 "HgN/A
7:30 PM43 °FPassing clouds.7 mph61%29.86 "HgN/A
7:00 PM43 °FPassing clouds.9 mph61%29.89 "HgN/A
6:30 PM43 °FPassing clouds.7 mph61%29.89 "HgN/A
6:00 PM43 °FClear.7 mph61%29.89 "Hg10 mi
5:30 PM43 °FPassing clouds.7 mph61%29.89 "HgN/A
5:00 PM43 °FPassing clouds.5 mph61%29.92 "HgN/A
4:30 PM43 °FLight rain. Passing clouds.5 mph61%29.92 "HgN/A
4:00 PM43 °FLight rain. Partly sunny.5 mph61%29.95 "HgN/A
3:30 PM43 °FLight rain. Partly sunny.9 mph66%29.98 "HgN/A
3:00 PM45 °FPassing clouds.7 mph53%29.98 "HgN/A
2:30 PM45 °FPassing clouds.7 mph53%29.98 "HgN/A
2:00 PM45 °FPassing clouds.9 mph53%29.98 "HgN/A
1:30 PM45 °FPassing clouds.9 mph53%29.98 "HgN/A
1:00 PM45 °FPassing clouds.7 mph49%30.01 "HgN/A
12:30 PM43 °FSunny.9 mph53%30.01 "Hg10 mi
12:00 PM43 °FPassing clouds.9 mph53%30.04 "HgN/A
11:30 AM41 °FPassing clouds.9 mph57%30.04 "HgN/A
11:00 AM41 °FPassing clouds.9 mph53%30.07 "HgN/A
10:30 AM39 °FPassing clouds.9 mph56%30.09 "HgN/A
9:30 AM37 °FSunny.7 mph60%30.09 "Hg10 mi
9:00 AM37 °FSunny.7 mph60%30.09 "Hg10 mi
8:30 AM36 °FSunny.7 mph65%30.12 "Hg10 mi
8:00 AM36 °FSunny.7 mph60%30.12 "Hg10 mi
7:30 AM34 °FPassing clouds.5 mph70%30.12 "HgN/A
7:00 AM34 °FClear.2 mph70%30.12 "Hg10 mi
6:30 AM34 °FPassing clouds.5 mph70%30.12 "HgN/A
5:30 AM36 °FPassing clouds.7 mph65%30.12 "HgN/A
5:00 AM34 °FPassing clouds.5 mph70%30.12 "HgN/A
4:00 AM36 °FPassing clouds.7 mph65%30.15 "HgN/A
3:00 AM36 °FPassing clouds.5 mph70%30.18 "HgN/A
2:00 AM37 °FClear.9 mph65%30.18 "Hg10 mi
1:00 AM36 °FPassing clouds.7 mph75%30.18 "HgN/A
12:00 AM37 °FPassing clouds.9 mph70%30.18 "HgN/A
Weather by CustomWeather, © 2014

See weather overviewHow to use our weather pages